Simultaneous Nadir Overpasses (SNOs) Predictions

Prediction of SNOs between FY3D and AQUA Satellite Orbit:

Table of predicted SNOs for the next 14.0 days since TLE Epoch: 7/10/2021
Index Date (FY3D) Time (FY3D) Lat,Lon (FY3D) SZA (FY3D ) Date (AQUA) Time (AQUA) Lat,Lon (AQUA) SZA (AQUA ) Distance(km) Time Diff (sec)
1 07/12/2021 06:39:59 -58.01, -89.62 143.48 07/12/2021 06:40:39 -58.01, -89.59 143.47 1.86 40
2 07/12/2021 07:27:48 47.86, 82.90 27.94 07/12/2021 07:27:16 47.87, 82.91 27.91 1.67 32
3 07/14/2021 22:56:32 -58.81, 25.80 142.37 07/14/2021 22:57:23 -58.81, 25.80 142.35 0.24 51
4 07/14/2021 23:44:48 50.24,-162.20 30.21 07/14/2021 23:44:26 50.24,-162.18 30.19 1.29 22
5 07/17/2021 15:13:28 -60.90, 140.27 140.02 07/17/2021 15:14:29 -60.89, 140.30 140.00 1.92 61
6 07/17/2021 16:01:25 51.30, -46.75 31.50 07/17/2021 16:01:14 51.31, -46.77 31.49 1.66 11
7 07/20/2021 07:29:57 -61.47,-104.23 139.00 07/20/2021 07:31:09 -61.48,-104.24 138.98 0.41 72
8 07/20/2021 08:18:26 53.73, 67.99 34.04 07/20/2021 08:18:25 53.73, 67.98 34.04 0.74 1
9 07/22/2021 23:52:27 -79.73, -31.50 118.39 07/22/2021 23:53:40 -80.10, -29.91 118.29 51.74 73
10 07/23/2021 00:35:22 55.92,-177.27 36.47 07/23/2021 00:35:31 55.92,-177.27 36.48 0.20 9



Historial Predications of SNOs between FY3D and AQUA
